クリステンセン彗星

P/2005 L4 ( Christensen )

English version
Home page
Updated on May 8, 2006

---------------------------------------------------------------------

・ プロフィール

発見日 2005年6月13日
発見光度 19.1等
発見者 Eric Christensen (Mt. Lemmon Survey)

・ 軌道要素

Epoch 2005 Aug. 18.0 TT = JDT 2453600.5
T 2005 Aug. 24.62919 TT                                 MPC
q   2.3667700            (2000.0)            P               Q
n   0.11808585     Peri.   24.72079     +0.60875767     +0.74067165
a   4.1146933      Node   284.07682     -0.76790595     +0.46006623
e   0.4248004      Incl.   17.04299     -0.19933525     +0.48963719
P   8.35

・ 星図

・ 光度変化

        m1 = 14.7 + 5 logΔ + 10.0 log r

---------------------------------------------------------------------

軌道要素はM.P.E.C. 2005-S05に掲載されたものです。
星図は StellaNavigator Ver.2.0 for Windows (アストロアーツ 編著 / アスキー出版局刊) で作成したものです。
光度グラフはComet for Windowsで作成したものです。

---------------------------------------------------------------------

Copyright(C) Seiichi Yoshida (comet@aerith.net). All rights reserved.